Regional Weather Roundup
Issued by NWS

Home | Current Version | Previous Version | Graphics & Text | Print | Product List | Glossary On
Versions: 1 2 3 4 5 6 7 8 9 10 11 12 13 14 15 16 17 18 19 20 21 22 23 24 25 26 27 28 29 30 31 32 33 34 35 36 37 38 39 40 41 42 43 44 45 46 47 48 49 50
000
ASUS45 KPSR 260010
RWRAZ

ARIZONA HOURLY REGIONAL WEATHER ROUNDUP
NATIONAL WEATHER SERVICE PHOENIX AZ
500 PM MST SUN JUN 25 2017

NOTE: FAIR INDICATES FEW OR NO CLOUDS BELOW 12,000 FEET WITH NO
SIGNIFICANT WEATHER AND/OR OBSTRUCTIONS TO VISIBILITY.

AZZ001>003-036-260100-
NORTHWEST ARIZONA

CITY           SKY/WX    TMP DP  RH WIND       PRES   REMARKS
BULLHEAD CITY  SUNNY    118  28   4 S10G17    29.66F HX 108
KINGMAN        SUNNY    105  34   8 SW17G24   29.96F
6HR MIN TEMP: 102; 6HR MAX TEMP: 108;

$$

AZZ004>008-015-016-018-260100-
NORTH CENTRAL ARIZONA

CITY           SKY/WX    TMP DP  RH WIND       PRES   REMARKS
GRAND CANYON   CLOUDY    78  38  23 S12       30.31F
6HR MIN TEMP:  75; 6HR MAX TEMP:  92; 6HR PCP: TRACE;

PRESCOTT       MOSUNNY   89  42  19 NE17G28   30.13F
6HR MIN TEMP:  89; 6HR MAX TEMP:  99;

FLAGSTAFF      CLOUDY    67  52  58 N8        30.38F
6HR MIN TEMP:  59; 6HR MAX TEMP:  88; 6HR PCP:  0.05;

PAYSON         PTSUNNY   88  36  15 NE21G30   30.18R
$$

AZZ009>014-017-260100-
NORTHEAST ARIZONA

CITY           SKY/WX    TMP DP  RH WIND       PRES   REMARKS
WINSLOW        CLOUDY    80  47  31 W32G45    30.17F
6HR MIN TEMP:  80; 6HR MAX TEMP:  99;

SAINT JOHNS    CLOUDY    83  46  27 S9        30.20S
6HR MIN TEMP:  82; 6HR MAX TEMP:  95;

WINDOW ROCK    MOSUNNY   89  30  12 W14       30.24F
6HR MIN TEMP:  88; 6HR MAX TEMP:  94;

SHOW LOW       PTSUNNY   73  41  31 NW14      30.29R
$$

AZZ540-542>544-546-548-260100-
GREATER PHOENIX AREA

CITY           SKY/WX    TMP DP  RH WIND       PRES   REMARKS
PHOENIX        MOSUNNY  114  43   9 NW15G22   29.73F HX 108
6HR MIN TEMP: 105; 6HR MAX TEMP: 116;

BUCKEYE        SUNNY    113  39   8 SW13      29.74F HX 106
GLENDALE       MOSUNNY  117  37   7 S14G20    29.75F HX 109
LUKE AFB       SUNNY    115  37   7 SW17G23   29.73F HX 107
6HR MIN TEMP: 105; 6HR MAX TEMP: 115;

DEER VALLEY    SUNNY    112  41   9 SW13      29.77F HX 106
6HR MIN TEMP: 104; 6HR MAX TEMP: 112;

SCOTTSDALE     SUNNY    112  41   9 SW9       29.79F HX 106
6HR MIN TEMP: 104; 6HR MAX TEMP: 112;

MESA-FALCON    MOSUNNY  111  46  11 W14G23    29.77F HX 107
MESA-GATEWAY   MOSUNNY  111  43  10 W13G20    29.78F HX 106
CHANDLER       SUNNY    113  39   8 SW10      29.75F HX 106
$$

AZZ539-553-260100-
SOUTHWEST MARICOPA COUNTY AND PINAL COUNTY

CITY           SKY/WX    TMP DP  RH WIND       PRES   REMARKS
CASA GRANDE      N/A    N/A N/A N/A MISG        N/A
GILA BEND      FAIR     115  41   8 W15G22    29.73F HX 108
6HR MIN TEMP: 109; 6HR MAX TEMP: 116;

$$

AZZ503-504-507>509-260100-
SOUTHEAST ARIZONA

CITY           SKY/WX    TMP DP  RH WIND       PRES   REMARKS
TUCSON         MOSUNNY  108  38   9 NW8       29.88F HX 102
6HR MIN TEMP: 101; 6HR MAX TEMP: 111;

DAVIS-MONTHAN  MOSUNNY  107  38  10 N10G24    29.87F HX 100
6HR MIN TEMP:  99; 6HR MAX TEMP: 109;

RYAN FIELD     SUNNY    109  39   9 NW10G23   29.87F HX 103
NOGALES        CLOUDY    91  47  21 SE14      30.03F
6HR MIN TEMP:  86; 6HR MAX TEMP: 105; 6HR PCP: TRACE;

SIERRA VISTA   CLOUDY    92  44  18 SW13      30.11S
6HR MIN TEMP:  91; 6HR MAX TEMP:  98;

DOUGLAS        CLOUDY    97  42  15 NW13      30.02F
6HR MIN TEMP:  93; 6HR MAX TEMP: 103;

SAFFORD        SUNNY    103  42  12 SW6       29.92F
6HR MIN TEMP:  90; 6HR MAX TEMP: 106;

$$

AZZ532-260100-
SOUTHWEST ARIZONA

CITY           SKY/WX    TMP DP  RH WIND       PRES   REMARKS
YUMA           SUNNY    112  51  13 S14       29.71F HX 109
6HR MIN TEMP: 103; 6HR MAX TEMP: 113;

$$

CAZ041-043-047-048-061-525>527-560>570-260100-
SOUTHERN CALIFORNIA

CITY           SKY/WX    TMP DP  RH WIND       PRES   REMARKS
DOWNTOWN L.A.  SUNNY     77  60  55 VRB3      29.87S
6HR MIN TEMP:  76; 6HR MAX TEMP:  88;

L.A. AIRPORT   SUNNY     73  61  65 SW16      29.87S
6HR MIN TEMP:  71; 6HR MAX TEMP:  77;

SAN DIEGO      MOSUNNY   75  63  66 NW10      29.88F
6HR MIN TEMP:  71; 6HR MAX TEMP:  77;

BURBANK        SUNNY     86  58  38 E18       29.86R
6HR MIN TEMP:  85; 6HR MAX TEMP: 111;

ONTARIO        MOSUNNY   95  59  30 W15G23    29.86S
6HR MIN TEMP:  89; 6HR MAX TEMP: 108;

RIVERSIDE      SUNNY     98  59  27 W15G21    29.85S
6HR MIN TEMP:  90; 6HR MAX TEMP: 109;

PALM SPRINGS   SUNNY    118  19   3 NW17G31   29.73S HX 107
6HR MIN TEMP: 105; 6HR MAX TEMP: 122;

EL CENTRO NAS  SUNNY    114  54  14 SE15      29.69F HX 112
6HR MIN TEMP: 103; 6HR MAX TEMP: 117;

IMPERIAL       CLOUDY   115  58  15 SE16      29.67F HX 115
6HR MIN TEMP: 103; 6HR MAX TEMP: 117;

BLYTHE         PTSUNNY  116  47  10 S21       29.68F HX 111
6HR MIN TEMP: 106; 6HR MAX TEMP: 117;

NEEDLES        CLOUDY   120  11   2 NW15G29   29.70F HX 107
                   6HR MAX TEMP: 123;

$$

NVZ020-UTZ003-260100-
SOUTHERN NEVADA-UTAH

CITY           SKY/WX    TMP DP  RH WIND       PRES   REMARKS
LAS VEGAS      MOSUNNY  111  16   3 SW9       29.80F HX 102
6HR MIN TEMP: 105; 6HR MAX TEMP: 113;

SALT LAKE CITY MOSUNNY   93  37  14 N9        30.09F
6HR MIN TEMP:  86; 6HR MAX TEMP:  94;

$$

NMZ009-TXZ055-260100-
NEW MEXICO-WEST TEXAS

CITY           SKY/WX    TMP DP  RH WIND       PRES   REMARKS
ALBUQUERQUE    CLOUDY    72  51  47 SW25G39   30.23S
6HR MIN TEMP:  70; 6HR MAX TEMP:  91; 6HR PCP: TRACE;

EL PASO        MOSUNNY   87  58  37 E26G35    30.09R
6HR MIN TEMP:  86; 6HR MAX TEMP:  97;

$$


........................KEY........................
SKY/WX - SKY CONDITION/WEATHER
TMP    - TEMPERATURE IN FAHRENHEIT
DP     - DEW POINT IN FAHRENHEIT
RH     - RELATIVE HUMIDITY IN PERCENT
WIND   - DIRECTION AND SPEED IN MILES PER HOUR (MPH)
VRB    - VARIABLE WIND DIRECTION
PRES   - MEAN SEA LEVEL PRESSURE IN INCHES OF MERCURY
         F - FALLING PRESSURE   R - RISING PRESSURE
         S - STEADY PRESSURE
VSB    - VISIBILITY IN MILES
HX     - HEAT INDEX IN FAHRENHEIT
WCI    - WIND CHILL INDEX IN FAHRENHEIT
TC     - TEMPERATURE IN CELSIUS WHICH IS ALSO KNOWN AS
         TEMPERATURE IN CENTIGRADE
AFB    - AIR FORCE BASE
         LUKE AFB IS LUKE AIR FORCE BASE
         DAVIS-MONTHAN IS DAVIS-MONTHAN AIR FORCE BASE
NAS    - NAVAL AIR STATION
         EL CENTRO NAS IS EL CENTRO NAVAL AIR STATION
N/A    - NOT AVAILABLE





USA.gov is the U.S. government's official web portal to all federal, state and local government web resources and services.